Location: Unspecified
(0.0000°N, 0.0000°E)
Time: 09:30:00
(UTC+01:00)

AO-40 - Visible Passes

Search period start: 21 December 2014 00:00
Search period end: 31 December 2014 00:00
Orbit: 1092 x 58729 km, 8.8° (Epoch: 20 December)

Date Brightness Start Highest point End Pass type
(mag) Time Alt. Az. Time Alt. Az. Time Alt. Az.
21 Dec ? 00:00:00 30° W 23:59:30 30° W 01:38:54 10° W visible
21 Dec ? 14:02:02 10° E 20:36:44 89° N 04:30:18 10° E visible
22 Dec ? 15:35:02 10° E 21:37:08 66° ENE 22:41:57 53° ENE visible
23 Dec ? 19:45:32 10° W 21:03:46 28° W 23:48:39 10° W visible
24 Dec ? 14:11:08 10° WSW 18:52:35 87° S 01:29:47 10° W visible
25 Dec ? 13:54:46 10° E 20:27:45 88° N 04:02:49 10° E visible
26 Dec ? 15:26:20 10° E 21:09:33 62° ENE 22:18:27 47° ENE visible
27 Dec ? 19:14:02 10° W 20:36:22 32° W 23:43:05 10° W visible
28 Dec ? 13:43:30 10° WSW 18:45:39 88° S 01:20:44 10° W visible
29 Dec ? 13:47:05 10° E 20:18:51 88° N 03:35:20 10° E visible
30 Dec ? 15:17:46 10° E 20:41:53 58° ENE 21:54:47 40° ENE visible
